map of BKI home
BKI - Airport
Location
City:  Kota-Kinabalu, Sabah, Malaysia
Name:Kota-Kinabalu International Airport
ICAO:WBKK
IATA:BKI

Details
Type:Airport (Aerodrome, Airfield)
Use:Public/Civil, International (customs port of entry)
Latitude:556'14"N (5.937208)
Longitude:11603'04"E (116.051181)
Datum:WGS 1984
Elevation:10 ft (3 m)
Variation:0.32W (WMM2015 magnetic declination)
-0.08 annual change
Runways:1
Longest:9800 × 150 ft (2987 × 45.5 m), paved

Time
Time Zone:UTC+8
Local Time:

Weather
METAR:WBKK 091100Z 35002KT 9999 TS FEW013 FEW017CB SCT040 BKN270 30/25 Q1005 TEMPO 5000 TSRA
TAF:WBKK 091100Z 0912/1012 11005KT 9999 FEW014 FEW015CB SCT140 BKN280
TEMPO 0912/0915 4000 TSRA FEW013 FEW014CB SCT035

Related Locations
Nearby:
Farthest:SDKH: 12384 mi / 19930 km
Canutama [Aeropuerto Canutama], AM, BR

Find:

   beyond  
but within

Other Information
Maps:
NOTAMs:
Links:
Sources:

  
flag of Malaysia
flag of Sabah
  

Sectional Chart

Flight Planning
at skyvector.com

Satellite Image

Google Maps Satellite view

 

Copyright © 2004-2016 Karl L. Swartz. All rights reserved.
The Great Circle Mapper name and logo are trademarks of the Great Circle Mapper.
All other trademarks mentioned herein belong to their respective owners.
Please see credits for attibutions and further copyright information.

  Follow gcmap on Facebook Follow gcmap on Twitter Follow gcmap on Google+ GCmap on LinkedIn

hCard Microformat

Geo Microformat